Home   Weather   Pasadena   Past weeks

Flag for USA Past Weather in Pasadena, Texas, USA — Yesterday and Last 2 Weeks

Now
72 °F

Sunny.


Feels Like: 77 °F
Forecast: 49 / 69 °F
Wind: 9 mph from West

Location: Houston / Ellington

Current Time: Jan 23, 2017 at 3:26:09 pm

Latest Report: Jan 23, 2017 at 2:50 pm


Visibility: 10 mi

Pressure: 29.92 "Hg

Humidity: 36%

Dew Point: 43 °F

Location of PasadenaLocation

Past Weather in Pasadena — Graph

°F

Pasadena Temperature Yesterday

Maximum temperature yesterday: 68 °F (at 1:50 pm)
Minimum temperature yesterday: 57 °F (at 6:50 am)
Average temperature yesterday: 63 °F

High & Low Weather Summary for the Past Weeks

 TemperatureHumidityPressure
High82 °F (Jan 20, 1:50 pm)100% (Jan 12, 7:50 pm)30.67 "Hg (Jan 12, 7:50 pm)
Low43 °F (Jan 8, 7:50 pm)28% (Jan 23, 12:50 pm)29.44 "Hg (Jan 21, 3:50 pm)
Average67 °F83%30.03 "Hg
* Reported Jan 8 1:50 pm — Jan 23 1:50 pm, Pasadena, Weather by CustomWeather, © 2017

Note: Actual official high and low records may vary slightly from our data, if they occured in-between our weather recording intervals... More about our weather records

Advertising

Pasadena Weather History for the Previous 24 Hours

Scroll right to see more
 ConditionsComfort  
Time TempWeatherWind HumidityBarometerVisibility
1:50 pm
Mon, Jan 23
66 °FSunny.9 mph28%29.93 "Hg10 mi
12:50 pm66 °FSunny.9 mph28%29.98 "Hg10 mi
11:50 am63 °FSunny.9 mph34%30.01 "Hg10 mi
10:50 am63 °FSunny.8 mph34%30.03 "Hg10 mi
9:50 am59 °FSunny.10 mph42%30.04 "Hg10 mi
8:50 am55 °FSunny.7 mph51%30.02 "Hg10 mi
7:50 am52 °FSunny.8 mph54%29.99 "Hg10 mi
6:50 am50 °FClear.6 mph62%29.98 "Hg10 mi
5:50 am52 °FClear.6 mph58%29.96 "Hg10 mi
4:50 am52 °FClear.6 mph58%29.96 "Hg10 mi
12:50 am59 °FClear.10 mph45%29.93 "Hg10 mi
11:50 pm
Sun, Jan 22
61 °FRefreshingly cool.12 mph42%29.90 "Hg10 mi
10:50 pm63 °FClear.16 mph49%29.90 "Hg10 mi
9:50 pm63 °FClear.17 mph49%29.87 "Hg10 mi
8:50 pm63 °FClear.14 mph49%29.85 "Hg10 mi
7:50 pm63 °FClear.17 mph49%29.82 "Hg10 mi
6:50 pm63 °FPassing clouds.17 mph52%29.80 "Hg10 mi
5:50 pm64 °FPassing clouds.18 mph46%29.76 "Hg10 mi
4:50 pm66 °FScattered clouds.23 mph43%29.72 "Hg10 mi
3:50 pm68 °FScattered clouds.23 mph40%29.68 "Hg10 mi
Weather by CustomWeather, © 2017

See weather overviewHow to use our weather pages